Probability
0 0 0 0 0 0 0 0 0 0 0 0 0 0 0 0 0 0 0 0 0 0 0 0 0 0 0 0 0 0 0 0 0 0 0 0 0 0
0 0 0 0 0 0 0 0 0 0 0 0 0 0 0 0 0 0 0 0 0 0 0 0 0 0 0 0 0 0 0 0 0 0 0 0 0 0
0 0 0 0 0 0 0 0 0 0 0 0 0 0 0 0 0 0 0 0 0 0 0 0 0 0 0 0 0 0 0 0 0 0 0 0 0 0
0 0 0 0 0 0 0 0 0 0 0 0 0 0 0 0 0 0 0 0 0 0 0 0 0 0 0 0 0 0 0 0 0 0 0 0 0 0
0 0 0 0 0 0 0 0 0 0 0 0 0 0 0 0 0 0 0 0 0 0 0 0 0 0 0 0 0 0 0 0 0 0 0 0 0 0
0 0 0 0 0 0 0 0 0 0 0 0 0 0 0 0 0 0 0 0 0 0 0 0 0 0 0 0 0 0 0 0 0 0 0 0 0 0
0 0 0 0 0 0 0 0 0 0 0 0 0 0 0 0 0 0 0 0 0 0 0 0 0 0 0 0 0 0 0 0 0 0 0 0 0 0
0 0 0 0 0 0 0 0 0 0 0 0 0 0 0 0 0 0 0 0 0 0 0 0 0 0 0 0 0 0 0 0 0 0 0 0 0 0
0 0 0 0 0 0 0 0 0 0 0 0 0 0 0 0 0 0 0 0 0 0 0 0 0 0 0 0 0 0 0 0 0 0 0 0 0 0
0 0 0 0 0 0 0 0 0 0 0 0 0 0 0 0 0 0 0 0 0 0 0 0 0 0 0 0 0 0 0 0 0 0 0 0 0 0
0 0 0 0 0 0 0 0 0 0 0 0 0 0 0 0 0 0 0 0 0 0 0 0 0 0 0 0 0 0 0 0 0 0 0 0 0 0
0 0 0 0 0 0 0 0 0 0 0 0 0 0 0 0 0 0 0 0 0 0 0 0 0 0 0 0 0 0 0 0 0 0 0 0 0 0
0 0 0 0 0 0 0 0 0 0 0 0 0 0 0 0 0 0 0 0 0 0 0 0 0 0 0 0 0 0 0 0 0 0 0 0 0 0
0 0 0 0 0 0 0 0 0 0 0 0 0 0 0 0 0 0 0 0 0 0 0 0 0 0 0 0 0 0 0 0 0 0 0 0 0 0
0 0 0 0 0 0 0 0 0 0 0 0 0 0 0 0 0 0 0 0 0 0 0 0 0 0 0 0 0 0 0 0 0 0 0 0 0 0
0 0 0 0 0 0 0 0 0 0 0 0 0 0 0 0 0 0 0 0 0 0 0 0 0 0 0 0 0 0 0 0 0 0 0 0 0 0
0 0 0 0 0 0 0 0 0 0 0 0 0 0 0 0 0 0 0 0 0 0 0 0 0 0 0 0 0 0 0 0 0 0 0 0 0 0
0 0 0 0 0 0 0 0 0 0 0 0 0 0 0 0 0 0 0 0 0 0 0 0 0 0 0 0 0 0 0 0 0 0 0 0 0 0
0 0 0 0 0 0 0 0 0 0 0 0 0 0 0 0 0 0 0 0 0 0 0 0 0 0 0 0 0 0 0 0 0 0 0 0 0 0
0 0 0 0 0 0 0 0 0 0 0 0 0 0 0 0 0 0 0 0 0 0 0 0 0 0 0 0 0 0 0 0 0 0 0 0 0 0
0 0 0 0 0 0 0 0 0 0 0 0 0 0 0 0 0 0 0 0 0 0 0 0 0 0 0 0 0 0 0 0 0 0 0 0 0 0
0 0 0 0 0 0 0 0 0 0 0 0 0 0 0 0 0 0 0 0 0 0 0 0 0 0 0 0 0 0 0 0 0 0 0 0 0 0
0 0 0 0 0 0 0 0 0 0 0 0 0 0 0 0 0 0 0 0 0 0 0 0 0 0 0 0 0 0 0 0 0 0 0 0 0 0
Wind_Speed
3 3 3 3 3 3 2 1 2 3 2 1 2 5 5 5 8 6 6 10 10 8 8 8 7 6 5 3 3 3 3 5 5 5 6 6 6 6
3 4 4 3 3 3 3 2 1 2 1 2 3 4 5 4 7 6 6 9 10 10 10 9 8 8 8 7 6 6 5 4 3 3 5 6 6 6
5 6 6 5 4 3 3 3 2 1 1 2 2 3 4 5 5 5 6 6 6 12 11 10 9 8 8 7 6 5 4 2 1 0 2 3 4 4
6 6 6 4 6 4 3 4 3 3 1 1 2 2 3 4 5 5 5 5 5 10 10 10 9 8 7 6 5 4 2 1 1 1 2 3 4 5
6 6 6 6 6 5 5 4 3 2 2 1 1 1 2 3 3 3 4 4 5 6 7 7 8 7 6 5 4 3 2 2 2 3 4 5 7 8
7 7 6 6 6 5 4 4 3 3 2 2 2 1 2 2 2 3 3 3 3 4 4 4 5 4 4 4 4 4 4 4 5 6 6 7 8 8
6 7 7 8 8 6 4 4 4 2 2 2 1 1 1 2 2 3 3 2 2 3 3 3 3 2 2 2 3 5 6 6 7 8 8 8 8 9
5 5 5 6 8 9 9 8 7 4 3 1 1 1 2 2 2 2 3 3 2 2 4 3 3 3 2 2 5 6 7 7 7 8 8 9 9 10
4 3 3 3 4 4 5 6 7 8 5 2 2 2 2 3 3 3 3 4 4 4 5 3 2 3 2 2 6 7 7 7 7 7 7 7 8 9
3 2 2 2 3 2 3 3 3 4 4 3 2 2 2 3 2 2 3 4 4 2 3 3 3 3 3 3 3 5 5 4 5 5 6 7 8 10
2 1 1 1 3 1 1 1 1 2 3 3 4 4 3 3 3 2 2 3 3 1 1 3 3 5 4 3 1 3 4 5 6 7 7 8 9 10
1 1 0 2 1 0 1 1 1 1 1 0 1 1 0 1 1 2 2 3 3 2 1 3 3 4 4 2 2 3 4 5 7 8 9 10 11 8
1 1 1 1 1 1 2 2 2 2 2 2 2 1 1 1 1 2 1 2 3 3 2 2 3 3 3 4 4 4 4 5 5 6 9 11 12 10
2 2 1 2 2 2 2 2 1 2 2 2 2 2 2 2 2 2 3 3 4 5 5 4 3 3 4 5 5 4 4 5 6 6 6 7 9 12
3 3 3 3 3 2 2 2 2 3 3 3 3 2 2 2 3 3 3 4 6 6 6 6 6 5 5 6 6 6 6 6 6 5 5 5 6 6
4 4 5 4 4 4 3 3 3 3 3 4 3 3 2 3 3 3 4 4 4 4 4 6 6 7 7 9 8 9 8 6 5 6 7 7 7 7
4 4 4 4 4 4 4 4 4 4 4 4 4 4 4 4 4 3 3 4 4 5 4 4 5 7 9 9 8 9 9 9 8 7 7 8 8 8
7 5 5 5 5 5 5 4 4 5 4 4 4 4 4 4 4 4 4 5 6 6 5 5 4 5 5 8 12 11 9 8 7 7 7 8 9 8
8 6 6 6 5 5 5 5 5 5 4 4 5 5 5 5 5 5 5 6 6 6 6 5 5 5 7 8 5 10 8 7 7 8 8 9 10 9
8 7 7 6 6 6 6 6 5 5 5 5 5 5 5 5 6 6 6 7 7 7 7 6 6 7 7 7 7 6 10 10 9 9 9 9 10 13
8 8 8 7 7 6 6 6 6 6 6 6 6 6 6 6 6 7 7 9 9 8 8 7 6 7 6 6 8 9 9 12 14 10 10 9 10 10
8 8 8 8 7 7 7 6 6 6 7 7 7 6 6 6 7 8 8 7 7 8 9 8 6 6 6 8 11 12 12 10 11 18 21 18 10 7
9 8 8 7 7 7 7 7 8 7 7 7 7 6 6 7 7 7 8 8 8 9 9 8 7 7 8 9 11 11 14 13 10 10 11 15 22 27
Wind_Direction
41 43 49 36 26 21 8 320 276 268 253 72 54 27 11 12 7 3 7 6 5 6 19 32 41 42 36 45 81 127 138 141 156 174 189 203 223 240
56 63 60 46 43 32 28 21 351 280 258 72 41 12 11 14 15 13 16 13 19 29 42 46 52 52 55 63 76 90 102 118 139 191 214 220 231 246
66 67 63 53 53 42 37 35 28 337 250 104 57 22 20 18 14 19 22 22 29 38 44 50 54 59 61 66 71 76 76 85 110 215 248 249 253 255
75 74 69 64 60 50 46 45 39 14 338 137 70 30 28 20 16 23 23 25 27 34 38 42 46 48 50 52 56 65 62 50 353 284 275 277 277 278
74 72 67 66 62 54 50 47 41 37 32 99 91 47 37 20 14 21 25 22 23 25 31 36 36 35 32 31 34 30 10 326 288 269 266 271 274 273
72 67 62 60 60 56 50 43 38 49 63 82 85 57 37 17 3 5 9 14 13 14 17 10 8 7 8 2 352 337 316 299 288 280 274 269 266 266
78 68 60 56 54 50 45 37 33 38 54 69 75 66 39 16 11 1 348 343 14 6 338 343 335 326 324 329 326 317 300 287 279 273 268 264 262 262
86 75 69 61 59 60 55 48 39 37 42 42 50 45 37 19 5 356 345 335 331 15 331 322 322 314 328 332 340 317 299 287 277 271 268 267 266 265
88 83 72 62 52 58 63 63 58 51 36 7 29 30 19 6 351 341 349 332 322 344 326 307 322 309 323 318 323 311 297 286 279 273 269 268 268 268
90 79 75 68 59 41 48 53 54 52 38 22 28 20 3 353 339 319 316 301 290 305 320 298 324 317 317 307 340 324 310 292 287 281 274 275 277 277
101 59 19 45 78 72 48 47 48 74 68 41 28 25 18 5 340 312 316 310 304 326 358 306 322 320 306 295 295 304 313 307 300 290 284 282 282 281
172 175 349 353 64 9 309 302 317 9 342 266 244 188 254 73 351 317 314 300 301 305 33 322 318 327 309 298 298 286 274 273 282 281 279 279 280 277
209 210 200 320 309 309 299 302 328 313 292 289 285 281 274 282 312 326 321 280 279 276 341 332 301 304 294 302 299 284 284 287 281 273 271 272 271 265
228 229 235 276 288 294 289 306 292 274 276 274 273 279 288 299 315 311 301 283 266 268 282 280 269 275 286 289 286 290 286 280 278 280 278 272 264 256
235 244 255 255 257 257 259 274 258 259 265 265 269 276 286 293 286 278 268 262 262 257 252 243 246 256 257 264 278 289 298 291 281 273 272 268 268 262
229 228 237 240 248 261 254 241 245 261 272 273 278 277 268 260 263 274 283 290 284 267 226 227 236 244 254 258 265 273 274 276 276 272 276 275 269 260
215 223 228 231 235 234 236 240 241 240 247 256 262 265 265 265 266 266 268 272 268 276 275 246 235 240 249 258 262 261 263 264 264 270 272 272 267 261
221 233 237 238 242 243 243 241 237 239 242 247 252 257 263 266 269 264 259 262 268 272 274 275 273 276 263 246 231 252 261 264 267 264 262 269 274 269
232 238 241 243 243 241 241 242 242 238 235 241 247 250 253 256 259 262 260 261 265 269 272 269 260 259 274 284 255 216 245 268 274 271 266 264 270 275
231 237 240 240 240 239 238 238 239 236 229 234 239 242 245 250 255 258 258 259 267 273 273 263 250 245 254 278 287 271 244 258 269 272 274 274 273 276
228 232 236 237 236 235 235 235 235 236 235 234 239 240 239 243 250 254 258 261 261 264 267 267 263 259 263 267 266 264 261 245 247 258 271 276 279 276
231 232 232 231 231 231 230 229 231 232 231 231 236 237 237 239 246 250 253 258 259 262 268 272 270 259 249 252 264 276 282 278 263 258 254 250 256 263
230 230 231 229 227 226 226 227 229 233 232 232 234 236 236 238 243 248 251 253 258 263 267 272 270 260 255 257 265 272 278 282 280 277 265 252 247 251